Weather History for Piney Island, NC

Change the Weather History Date:

Saturday, April 6, 2013

  Actual Average (KMRH) Record (KMRH)
Temperature  
Mean Temperature 50 °F -  
Max Temperature 55 °F 67 °F 83 °F (1988)
Min Temperature 46 °F 47 °F 32 °F (1975)
Degree Days  
Heating Degree Days 14    
Moisture  
Dew Point 43 °F    
Average Humidity 74    
Maximum Humidity 96    
Minimum Humidity 53    
Precipitation  
Precipitation 0.01 in - - ()
Sea Level Pressure  
Sea Level Pressure 30.21 in    
Wind  
Wind Speed 10 mph (NE)    
Max Wind Speed 22 mph    
Max Gust Speed 28 mph    
Visibility 10 miles    
Events      
Averages and records for this station are not official NWS values.
T = Trace of Precipitation, MM = Missing Value Source: NWS Daily Summary

Daily Weather History Graph

Daily Weather History Graph

Search for Another Location

Airport:

Trip Planner

Search our weather history database for the weather conditions in past years. The results will help you decide how hot, cold, wet, or windy it might be!

Date:

Astronomy

Apr. 06, 2013 Rise Set
Actual Time 6:45 AM EDT 7:31 PM EDT
Civil Twilight 6:19 AM EDT 7:57 PM EDT
Nautical Twilight 5:49 AM EDT 8:27 PM EDT
Astronomical Twilight 5:18 AM EDT 8:58 PM EDT
Moon 4:19 AM EDT (4/6) 4:04 PM EDT (4/6)
Length of Visible Light 13h 37m
Length of Day
12h 45m
Waning Crescent, 15% of the Moon is Illuminated
Apr 6
Waning Crescent
Apr 10
New
Apr 18
First Quarter
Apr 25
Full
May 2
Last Quarter

Hourly Weather History & Observations

Time (EDT) Temp. Windchill Dew Point Humidity Pressure Visibility Wind Dir Wind Speed Gust Speed Precip Events Conditions
12:56 AM 50.0 °F - 48.9 °F 96% 30.03 in 9.0 mi West 6.9 mph - N/A   Clear
1:56 AM 48.0 °F - 46.9 °F 96% 30.04 in 9.0 mi West 5.8 mph - N/A   Clear
2:56 AM 46.0 °F 44.8 °F 45.0 °F 96% 30.04 in 3.0 mi South 3.5 mph - N/A   Clear
3:56 AM 46.9 °F - 45.0 °F 93% 30.06 in 10.0 mi Calm Calm - N/A   Clear
4:56 AM 48.9 °F - 46.9 °F 93% 30.07 in 9.0 mi Calm Calm - 0.01 in   Clear
5:56 AM 48.0 °F - 46.0 °F 93% 30.10 in 10.0 mi NNW 6.9 mph - N/A   Clear
6:56 AM 50.0 °F - 46.0 °F 86% 30.12 in 10.0 mi North 10.4 mph - N/A   Clear
7:56 AM 52.0 °F - 43.0 °F 71% 30.16 in 10.0 mi North 12.7 mph - N/A   Clear
8:56 AM 54.0 °F - 39.9 °F 59% 30.19 in 10.0 mi NNE 15.0 mph 21.9 mph N/A   Clear
9:56 AM 55.0 °F - 39.9 °F 57% 30.22 in 10.0 mi NNE 18.4 mph - N/A   Clear
10:56 AM 55.0 °F - 44.1 °F 67% 30.24 in 10.0 mi NE 19.6 mph 26.5 mph N/A   Clear
11:56 AM 55.9 °F - 44.1 °F 64% 30.26 in 10.0 mi NE 19.6 mph 25.3 mph N/A   Clear
12:56 PM 54.0 °F - 44.1 °F 69% 30.28 in 10.0 mi ENE 19.6 mph 27.6 mph N/A   Clear
1:56 PM 54.0 °F - 42.1 °F 64% 30.27 in 10.0 mi NE 21.9 mph 25.3 mph N/A   Clear
2:56 PM 55.0 °F - 37.9 °F 53% 30.27 in 10.0 mi NE 17.3 mph 26.5 mph N/A   Clear
3:56 PM 54.0 °F - 39.0 °F 57% 30.27 in 10.0 mi NE 18.4 mph 24.2 mph N/A   Clear
4:56 PM 53.1 °F - 39.0 °F 59% 30.26 in 10.0 mi ENE 17.3 mph 24.2 mph N/A   Clear
5:56 PM 53.1 °F - 37.9 °F 57% 30.27 in 10.0 mi ENE 18.4 mph 24.2 mph N/A   Clear
7:56 PM 50.0 °F - 39.9 °F 68% 30.30 in 10.0 mi ENE 17.3 mph 23.0 mph N/A   Clear
8:56 PM 48.9 °F - 39.9 °F 71% 30.32 in 10.0 mi NE 12.7 mph - N/A   Clear
9:56 PM 48.9 °F - 41.0 °F 74% 30.32 in 10.0 mi ENE 12.7 mph - N/A   Clear
10:56 PM 48.9 °F - 42.1 °F 77% 30.32 in 10.0 mi ENE 11.5 mph - N/A   Clear
11:56 PM 48.0 °F - 43.0 °F 83% 30.31 in 10.0 mi NE 10.4 mph - N/A   Clear